Change the Weather History Date:

Saturday, February 15, 2014

  Actual Average Record
Temperature  
Mean Temperature 56 °F -  
Max Temperature 68 °F 64 °F 86 °F (1991)
Min Temperature 44 °F 43 °F 28 °F (1990)
Degree Days  
Heating Degree Days 9    
Growing Degree Days 6 (Base 50)    
Moisture  
Dew Point 48 °F    
Average Humidity 85    
Maximum Humidity 97    
Minimum Humidity 52    
Precipitation  
Precipitation 0.00 in - - ()
Sea Level Pressure  
Sea Level Pressure 30.03 in    
Wind  
Wind Speed 2 mph (NNW)    
Max Wind Speed 16 mph    
Max Gust Speed -    
Visibility 6 miles    
Events Fog    
Averages and records for this station are not official NWS values.
T = Trace of Precipitation, MM = Missing Value Source: NWS Daily Summary

Daily Weather History Graph

Daily Weather History Graph

Search for Another Location

Airport or City:

Trip Planner

Search our weather history database for the weather conditions in past years. The results will help you decide how hot, cold, wet, or windy it might be!

Date:

Astronomy

Feb. 15, 2014 Rise Set
Actual Time 6:48 AM PST 5:45 PM PST
Civil Twilight 6:22 AM PST 6:11 PM PST
Nautical Twilight 5:53 AM PST 6:40 PM PST
Astronomical Twilight 5:23 AM PST 7:10 PM PST
Moon 6:45 PM PST (2/15) 6:53 AM PST (2/15)
Length of Visible Light 11h 48m
Length of Day
10h 56m
Full, 99% of the Moon is Illuminated
Feb 15
Full
Feb 22
Last Quarter
Mar 1
New
Mar 8
First Quarter
Mar 16
Full

Hourly Weather History & Observations

Time (PST) Temp. Windchill Dew Point Humidity Pressure Visibility Wind Dir Wind Speed Gust Speed Precip Events Conditions
12:27 AM 50.0 °F - 48.2 °F 94% 30.05 in 0.2 mi Calm Calm - N/A Fog Fog
12:56 AM 50.0 °F - 48.9 °F 96% 30.03 in 0.2 mi Calm Calm - N/A Fog Fog
1:56 AM 48.9 °F - 48.0 °F 97% 30.02 in 0.2 mi Calm Calm - N/A Fog Fog
2:09 AM 48.2 °F - 46.4 °F 93% 30.01 in 0.2 mi Calm Calm - N/A Fog Fog
2:20 AM 48.2 °F - 46.4 °F 93% 30.00 in 0.2 mi Calm Calm - N/A Fog Fog
2:56 AM 48.0 °F - 46.0 °F 93% 29.99 in 0.2 mi Calm Calm - N/A Fog Fog
3:56 AM 46.0 °F - 44.1 °F 93% 29.99 in 0.2 mi Calm Calm - N/A Fog Fog
4:56 AM 46.9 °F - 45.0 °F 93% 30.01 in 0.2 mi Calm Calm - N/A Fog Fog
5:56 AM 45.0 °F - 44.1 °F 97% 30.00 in 0.2 mi Calm Calm - N/A Fog Fog
6:11 AM 44.6 °F 42.2 °F 42.8 °F 93% 30.00 in 0.8 mi East 4.6 mph - N/A   Mist
6:19 AM 44.6 °F 42.2 °F 42.8 °F 93% 30.00 in 4.0 mi East 4.6 mph - N/A   Scattered Clouds
6:56 AM 44.1 °F - 42.1 °F 93% 30.03 in 4.0 mi Calm Calm - N/A   Scattered Clouds
7:03 AM 44.6 °F - 42.8 °F 93% 30.02 in 4.0 mi Calm Calm - N/A   Mostly Cloudy
7:56 AM 45.0 °F - 43.0 °F 93% 30.04 in 4.0 mi Calm Calm - N/A   Mostly Cloudy
8:03 AM 44.6 °F - 42.8 °F 93% 30.05 in 10.0 mi Calm Calm - N/A   Partly Cloudy
8:56 AM 48.9 °F - 45.0 °F 86% 30.05 in 10.0 mi Calm Calm - N/A   Partly Cloudy
9:56 AM 55.9 °F - 48.0 °F 75% 30.08 in 10.0 mi Calm Calm - N/A   Clear
10:56 AM 62.1 °F - 50.0 °F 65% 30.09 in 10.0 mi Calm Calm - N/A   Clear
11:56 AM 63.0 °F - 51.1 °F 65% 30.06 in 10.0 mi Calm Calm - N/A   Clear
12:56 PM 64.0 °F - 50.0 °F 60% 30.04 in 10.0 mi Calm Calm - N/A   Clear
1:56 PM 68.0 °F - 50.0 °F 52% 30.01 in 10.0 mi Calm Calm - N/A   Overcast
2:56 PM 68.0 °F - 51.1 °F 55% 30.00 in 10.0 mi WNW 3.5 mph - N/A   Overcast
3:56 PM 62.1 °F - 52.0 °F 70% 30.00 in 10.0 mi NW 5.8 mph - N/A   Overcast
4:56 PM 55.9 °F - 52.0 °F 87% 30.02 in 10.0 mi NW 15.0 mph - N/A   Overcast
5:21 PM 55.4 °F - 51.8 °F 88% 30.04 in 4.0 mi NNW 16.1 mph - N/A   Mostly Cloudy
5:56 PM 55.9 °F - 52.0 °F 87% 30.05 in 5.0 mi NNW 15.0 mph - N/A   Overcast
6:32 PM 55.4 °F - 51.8 °F 88% 30.04 in 5.0 mi NW 8.1 mph - N/A   Overcast
6:56 PM 55.0 °F - 51.1 °F 86% 30.03 in 5.0 mi NW 5.8 mph - N/A   Overcast
7:56 PM 54.0 °F - 50.0 °F 86% 30.04 in 10.0 mi Calm Calm - N/A   Mostly Cloudy
8:56 PM 54.0 °F - 50.0 °F 86% 30.05 in 10.0 mi Calm Calm - N/A   Clear
9:20 PM 53.6 °F - 51.8 °F 94% 30.06 in 9.0 mi NNW 10.4 mph - N/A   Mostly Cloudy
9:56 PM 55.0 °F - 51.1 °F 86% 30.06 in 10.0 mi NNW 9.2 mph - N/A   Overcast
10:56 PM 55.9 °F - 52.0 °F 87% 30.06 in 10.0 mi North 5.8 mph - N/A   Overcast
11:56 PM 55.9 °F - 52.0 °F 87% 30.06 in 10.0 mi NW 6.9 mph - N/A   Overcast